Galveston, TX

2:09 AM CDT on October 22, 2017 (GMT -0500)
Scholes International At Galveston

Weather History for KGLS - December, 2012

Change the Weather History Date:

Tuesday, December 25, 2012

  Actual Average Record
Temperature  
Mean Temperature 57 °F 56 °F  
Max Temperature 75 °F 63 °F 76 °F (2015)
Min Temperature 38 °F 49 °F 14 °F (1983)
Degree Days  
Heating Degree Days 8 9  
Month to date heating degree days 91 200  
Since 1 July heating degree days 174 303  
Cooling Degree Days 0 0  
Month to date cooling degree days 75 14  
Year to date cooling degree days 3939 3303  
Growing Degree Days 7 (Base 50)    
Moisture  
Dew Point 56 °F    
Average Humidity 70    
Maximum Humidity 100    
Minimum Humidity 40    
Precipitation  
Precipitation 0.16 in 0.12 in 2.01 in (1982)
Month to date precipitation 2.44 2.96  
Year to date precipitation 46.78 50.20  
Snow  
Snow 0.00 in - 0.90 in (2004)
Month to date snowfall 0.0  
Since 1 July snowfall 0.0  
Snow Depth 0.00 in    
Sea Level Pressure  
Sea Level Pressure 29.72 in    
Wind  
Wind Speed 21 mph (SW)    
Max Wind Speed 40 mph    
Max Gust Speed 47 mph    
Visibility 9 miles    
Events Rain , Thunderstorm    
T = Trace of Precipitation, MM = Missing Value Source: NWS Daily Summary

Daily Weather History Graph

Daily Weather History Graph

Search for Another Location

Airport or City:

Trip Planner

Search our weather history database for the weather conditions in past years. The results will help you decide how hot, cold, wet, or windy it might be!

Date:

Astronomy

Dec. 25, 2012 Rise Set
Actual Time 7:11 AM CST 5:28 PM CST
Civil Twilight 6:45 AM CST 5:54 PM CST
Nautical Twilight 6:15 AM CST 6:24 PM CST
Astronomical Twilight 5:46 AM CST 6:53 PM CST
Moon 3:34 PM CST (12/25) 4:48 AM CST (12/25)
Length of Visible Light 11h 08m
Length of Day
10h 16m
Waxing Gibbous, 94% of the Moon is Illuminated
Dec 25
Waxing Gibbous
Dec 28
Full
Jan 4
Last Quarter
Jan 11
New
Jan 18
First Quarter

Hourly Weather History & Observations

Time (CST) Temp. Windchill Dew Point Humidity Pressure Visibility Wind Dir Wind Speed Gust Speed Precip Events Conditions
12:52 AM 66.9 °F - 66.9 °F 100% 29.75 in 8.0 mi SE 10.4 mph - N/A   Mostly Cloudy
1:52 AM 68.0 °F - 68.0 °F 100% 29.73 in 10.0 mi South 10.4 mph - 0.00 in   Partly Cloudy
2:52 AM 68.0 °F - 66.9 °F 96% 29.72 in 10.0 mi South 12.7 mph - N/A   Partly Cloudy
3:52 AM 68.0 °F - 66.9 °F 96% 29.67 in 10.0 mi SSE 15.0 mph - N/A   Clear
4:52 AM 69.1 °F - 68.0 °F 96% 29.70 in 10.0 mi South 15.0 mph 21.9 mph N/A   Mostly Cloudy
5:52 AM 69.1 °F - 66.9 °F 93% 29.64 in 10.0 mi South 21.9 mph 26.5 mph 0.01 in   Clear
6:52 AM 69.1 °F - 66.9 °F 93% 29.62 in 10.0 mi South 25.3 mph 32.2 mph N/A   Scattered Clouds
7:52 AM 70.0 °F - 68.0 °F 93% 29.62 in 10.0 mi South 21.9 mph 29.9 mph N/A   Overcast
8:52 AM 71.1 °F - 68.0 °F 90% 29.62 in 10.0 mi South 20.7 mph 29.9 mph N/A   Overcast
9:15 AM 71.6 °F - 68.0 °F 88% 29.62 in 10.0 mi South 20.7 mph - N/A   Overcast
9:27 AM 71.6 °F - 68.0 °F 88% 29.63 in 10.0 mi South 20.7 mph 26.5 mph N/A   Overcast
9:52 AM 72.0 °F - 68.0 °F 87% 29.64 in 10.0 mi SSW 19.6 mph 28.8 mph N/A   Overcast
10:52 AM 73.0 °F - 68.0 °F 84% 29.65 in 10.0 mi SSW 25.3 mph 32.2 mph N/A   Overcast
11:25 AM 73.4 °F - 68.0 °F 83% 29.63 in 10.0 mi SSW 24.2 mph 36.8 mph N/A   Overcast
11:52 AM 71.1 °F - 68.0 °F 90% 29.64 in 4.0 mi SW 25.3 mph 33.4 mph 0.07 in Rain , Thunderstorm Rain
11:57 AM 71.6 °F - 68.0 °F 88% 29.63 in 1.8 mi SW 29.9 mph 41.4 mph 0.06 in Rain , Thunderstorm Heavy Thunderstorms and Rain
12:03 PM 69.8 °F - 64.4 °F 83% 29.61 in 4.0 mi SW 27.6 mph 41.4 mph 0.07 in Rain , Thunderstorm Thunderstorms and Rain
12:52 PM 75.0 °F - 64.0 °F 69% 29.61 in 10.0 mi West 16.1 mph 28.8 mph 0.07 in   Mostly Cloudy
1:52 PM 73.0 °F - 55.0 °F 53% 29.63 in 10.0 mi WNW 20.7 mph 29.9 mph N/A   Partly Cloudy
2:52 PM 71.1 °F - 48.0 °F 44% 29.64 in 10.0 mi WNW 18.4 mph 31.1 mph N/A   Clear
3:52 PM 70.0 °F - 46.0 °F 42% 29.67 in 10.0 mi WNW 26.5 mph 34.5 mph N/A   Clear
4:52 PM 66.9 °F - 45.0 °F 45% 29.70 in 10.0 mi WNW 13.8 mph - N/A   Clear
5:52 PM 64.9 °F - 39.9 °F 40% 29.74 in 10.0 mi WNW 24.2 mph 36.8 mph N/A   Clear
6:52 PM 48.9 °F - 36.0 °F 61% 29.84 in 10.0 mi WNW 24.2 mph 41.4 mph 0.01 in   Clear
7:52 PM 44.1 °F 34.0 °F 33.1 °F 65% 29.91 in 10.0 mi NW 29.9 mph 41.4 mph N/A   Clear
8:52 PM 41.0 °F 30.0 °F 32.0 °F 70% 29.95 in 10.0 mi NW 28.8 mph 38.0 mph N/A   Clear
9:52 PM 39.9 °F 28.6 °F 30.0 °F 68% 29.99 in 10.0 mi NW 28.8 mph 35.7 mph N/A   Clear
10:52 PM 39.0 °F 27.4 °F 28.9 °F 67% 30.01 in 10.0 mi NW 28.8 mph 40.3 mph N/A   Clear
11:52 PM 37.4 °F 25.6 °F 28.4 °F 70% 30.03 in 10.0 mi NW 26.5 mph 35.7 mph N/A   Scattered Clouds